Flight Track Log - Related Links

Times and Time Zones

All times are in EST time to prevent confusion due to time zone crossing. See the DAL5258 flight status page for this flight to view local times or setup timezone preferences in your user account.

Time Position Orientation Groundspeed Altitude Reporting Facility
EST Latitude Longitude Course Direction KTS MPH feet Rate Location/Type
Sat 05:25:52 PM 40.6217 -75.4847 241° Southwest 176 203 2,700  Level New York Center
Sat 05:26:52 PM 40.6067 -75.5492 253° West 227 261 5,600 2,950 Climbing New York Center
Sat 05:27:52 PM 40.5931 -75.6250 257° West 239 275 8,600 3,300 Climbing New York Center
Sat 05:28:52 PM 40.5689 -75.7078 249° West 239 275 12,200 3,450 Climbing New York Center
Sat 05:29:52 PM 40.5339 -75.7928 242° Southwest 244 281 15,500 2,900 Climbing New York Center
Sat 05:30:52 PM 40.5017 -75.8669 240° Southwest 239 275 18,000 2,150 Climbing New York Center
Sat 05:31:00 PM 40.7911 -76.0340 241° Southwest  Level Estimated
Sat 05:31:52 PM 40.4694 -75.9353 238° Southwest 239 275 19,800  Level New York Center
Sat 05:32:52 PM 40.4347 -76.0147 240° Southwest 244 281 21,800 1,600 Climbing New York Center
Sat 05:33:52 PM 40.4000 -76.0936 240° Southwest 244 281 23,000 1,400 Climbing New York Center
Sat 05:34:52 PM 40.3628 -76.1753 239° Southwest 256 295 24,600 1,450 Climbing New York Center
Sat 05:35:52 PM 40.3281 -76.2517 239° Southwest 261 300 25,900 700 Climbing New York Center
Sat 05:36:52 PM 40.2908 -76.3358 240° Southwest 261 300 26,000 50 Climbing New York Center
Sat 05:37:52 PM 40.2536 -76.4172 239° Southwest 261 300 26,000  Level New York Center
Sat 05:38:52 PM 40.2325 -76.5078 253° West 261 300 26,000  Level New York Center
Sat 05:39:52 PM 40.2278 -76.6053 266° West 261 300 26,000  Level New York Center
Sat 05:40:52 PM 40.2186 -76.7053 263° West 273 314 26,000  Level New York Center
Sat 05:41:52 PM 40.2136 -76.8025 266° West 273 314 26,000  Level New York Center
Sat 05:42:52 PM 40.2067 -76.9000 265° West 273 314 26,000  Level New York Center
Sat 05:43:52 PM 40.1994 -76.9972 264° West 273 314 26,000  Level New York Center
Sat 05:44:52 PM 40.1919 -77.0969 264° West 273 314 26,000  Level New York Center
Sat 05:45:52 PM 40.1844 -77.1969 264° West 273 314 26,000  Level New York Center
Sat 05:46:52 PM 40.1811 -77.2972 268° West 273 314 26,000  Level New York Center
Sat 05:49:06 PM 40.1628 -77.5247 264° West 273 314 26,000  Level Cleveland Center
Sat 05:50:08 PM 40.1547 -77.6231 264° West 273 314 26,000  Level Cleveland Center
Sat 05:51:10 PM 40.1475 -77.7203 264° West 271 312 26,000  Level Cleveland Center
Sat 05:52:11 PM 40.1400 -77.8186 264° West 272 313 26,000  Level Cleveland Center
Sat 05:53:13 PM 40.1319 -77.9247 264° West 271 312 26,000  Level Cleveland Center
Sat 05:54:14 PM 40.1236 -78.0200 264° West 266 306 26,000  Level Cleveland Center
Sat 05:55:16 PM 40.1164 -78.1189 265° West 272 313 26,000  Level Cleveland Center
Sat 05:56:18 PM 40.1072 -78.2178 263° West 274 315 26,000  Level Cleveland Center
Sat 05:57:19 PM 40.1119 -78.3144 274° West 284 327 26,000  Level Cleveland Center
Sat 05:58:21 PM 40.1342 -78.4111 287° West 282 325 26,000  Level Cleveland Center
Sat 05:59:22 PM 40.1636 -78.5272 288° West 281 323 26,000  Level Cleveland Center
Sat 06:00:24 PM 40.1861 -78.6239 287° West 280 322 26,000  Level Cleveland Center
Sat 06:01:26 PM 40.2094 -78.7217 287° West 282 325 26,000  Level Cleveland Center
Sat 06:02:27 PM 40.2336 -78.8175 288° West 280 322 26,000  Level Cleveland Center
Sat 06:03:29 PM 40.2550 -78.9128 286° West 275 316 26,000  Level Cleveland Center
Sat 06:04:30 PM 40.2797 -79.0086 289° West 278 320 26,000  Level Cleveland Center
Sat 06:05:32 PM 40.3014 -79.1033 287° West 274 315 26,000  Level Cleveland Center
Sat 06:06:34 PM 40.3267 -79.2128 287° West 265 305 26,000  Level Cleveland Center
Sat 06:07:35 PM 40.3481 -79.3072 287° West 271 312 26,000  Level Cleveland Center
Sat 06:08:37 PM 40.3686 -79.3911 288° West 272 313 26,000  Level Cleveland Center
Sat 06:09:39 PM 40.3903 -79.4847 287° West 269 310 26,000  Level Cleveland Center
Sat 06:10:40 PM 40.4158 -79.5961 287° West 268 308 26,000  Level Cleveland Center
Sat 06:11:42 PM 40.4369 -79.6906 286° West 270 311 26,000  Level Cleveland Center
Sat 06:12:44 PM 40.4586 -79.7847 287° West 271 312 26,000  Level Cleveland Center
Sat 06:13:45 PM 40.4800 -79.8786 287° West 271 312 26,000  Level Cleveland Center
Sat 06:14:47 PM 40.5008 -79.9733 286° West 274 315 26,000  Level Cleveland Center
Sat 06:15:49 PM 40.5269 -80.0789 288° West 272 313 26,000  Level Cleveland Center
Sat 06:16:50 PM 40.5469 -80.1753 285° West 273 314 26,000  Level Cleveland Center
Sat 06:17:52 PM 40.5689 -80.2703 287° West 273 314 26,000  Level Cleveland Center
Sat 06:18:54 PM 40.5908 -80.3689 286° West 273 314 26,000  Level Cleveland Center
Sat 06:19:55 PM 40.6136 -80.4700 287° West 274 315 26,000  Level Cleveland Center
Sat 06:20:57 PM 40.6353 -80.5681 286° West 278 320 26,000  Level Cleveland Center
Sat 06:21:59 PM 40.6572 -80.6664 286° West 277 319 26,000  Level Cleveland Center
Sat 06:23:00 PM 40.7039 -80.7667 302° West 289 333 26,000  Level Cleveland Center
Sat 06:24:02 PM 40.7503 -80.8553 305° West 292 336 26,000  Level Cleveland Center
Sat 06:25:04 PM 40.7969 -80.9444 305° West 296 341 26,000  Level Cleveland Center
Sat 06:26:05 PM 40.8433 -81.0344 304° West 297 342 26,000  Level Cleveland Center
Sat 06:27:07 PM 40.8953 -81.1350 304° West 300 345 26,000  Level Cleveland Center
Sat 06:28:08 PM 40.9433 -81.2278 304° West 303 349 26,000  Level Cleveland Center
Sat 06:29:10 PM 40.9914 -81.3219 304° West 305 351 26,000  Level Cleveland Center
Sat 06:30:11 PM 41.0397 -81.4164 304° West 307 353 26,000  Level Cleveland Center
Sat 06:31:13 PM 41.0889 -81.5122 304° West 310 357 26,000  Level Cleveland Center
Sat 06:32:15 PM 41.1397 -81.6100 305° West 309 356 26,000  Level Cleveland Center
Sat 06:33:16 PM 41.1883 -81.7039 305° West 310 357 26,000  Level Cleveland Center
Sat 06:34:18 PM 41.2367 -81.7983 304° West 309 356 26,000  Level Cleveland Center
Sat 06:35:19 PM 41.2844 -81.8950 303° West 313 360 26,000 -244 Level Cleveland Center
Sat 06:36:21 PM 41.3333 -81.9917 304° West 316 364 25,500 -1,220 Descending Cleveland Center
Sat 06:37:22 PM 41.3908 -82.1078 303° West 349 402 23,500 -1,918 Descending Cleveland Center
Sat 06:38:23 PM 41.4461 -82.2194 303° West 356 410 21,600 -1,854 Descending Cleveland Center
Sat 06:39:25 PM 41.5033 -82.3303 305° West 358 412 19,700 -1,902 Descending Cleveland Center
Sat 06:40:26 PM 41.5572 -82.4386 304° West 351 404 17,700 -1,707 Descending Cleveland Center
Sat 06:41:28 PM 41.6089 -82.5433 303° West 336 387 16,200 -1,745 Descending Cleveland Center
Sat 06:42:16 PM 41.6592 -82.6453 303° West 332 382 14,500 -2,066 Descending Cleveland Center
Sat 06:42:29 PM 41.6700 -82.6644 307° West 335 386 14,100 -1,837 Descending Cleveland Center
Sat 06:43:05 PM 41.6975 -82.7228 302° West 333 383 13,000 -1,839 Descending Cleveland Center
Sat 06:43:31 PM 41.7203 -82.7675 304° West 333 383 12,200 -1,091 Descending Cleveland Center
Sat 06:44:00 PM 41.7517 -82.8111 314° West 336 387 12,000 -689 Descending Cleveland Center
Sat 06:44:32 PM 41.7867 -82.8497 321° Northwest 322 371 11,500 -1,000 Descending Cleveland Center
Sat 06:45:00 PM 41.8153 -82.8867 316° Northwest 295 339 11,000 -1,082 Descending Cleveland Center
Sat 06:45:33 PM 41.8328 -82.9303 298° West 274 315 10,400 -1,475 Descending Cleveland Center
Sat 06:46:01 PM 41.8444 -82.9717 291° West 236 272 9,500 -1,742 Descending Cleveland Center
Sat 06:46:35 PM 41.8589 -83.0128 295° West 247 284 8,600 -1,343 Descending Cleveland Center
Sat 06:47:08 PM 41.8753 -83.0656 293° West 232 267 8,000 -1,082 Descending Cleveland Center
Sat 06:47:36 PM 41.8858 -83.0931 297° West 239 275 7,500 -1,778 Descending Cleveland Center
Sat 06:48:02 PM 41.9011 -83.1364 295° West 232 267 6,400 -1,377 Descending Cleveland Center
Sat 06:48:37 PM 41.9122 -83.1708 293° West 232 267 6,100 -295 Descending Cleveland Center
Sat 06:49:03 PM 41.9267 -83.2156 293° West 229 264 6,100 -194 Level Cleveland Center
Sat 06:49:39 PM 41.9403 -83.2547 295° West 230 265 5,900 -1,164 Descending Cleveland Center
Sat 06:50:10 PM 41.9603 -83.2933 305° West 225 259 4,800 -1,770 Descending Cleveland Center
Sat 06:50:40 PM 41.9728 -83.3186 304° West 225 259 4,100 -1,700 Descending Cleveland Center
Sat 06:51:10 PM 41.9947 -83.3628 304° West 221 254 3,100 -1,082 Descending Cleveland Center
Sat 06:51:41 PM 42.0089 -83.3883 307° West 225 259 3,000  Descending Cleveland Center
Sat 06:52:11 PM 42.0431 -83.4144 330° Northwest 192 221 3,100  Climbing Cleveland Center
Sat 06:52:43 PM 42.0678 -83.4217 348° North 201 231 3,000 -98 Descending Cleveland Center
Sat 06:53:12 PM 42.0925 -83.4242 356° North 178 205 3,000 -295 Level Cleveland Center
Sat 06:53:44 PM 42.1144 -83.4125 22° Northeast 186 214 2,700 -800 Descending Cleveland Center
Sat 06:54:12 PM 42.1325 -83.3961 34° Northeast 151 174 2,200 -787 Descending Cleveland Center
Sat 06:54:45 PM 42.1494 -83.3853 25° Northeast 162 186 1,900 -689 Descending Cleveland Center
Sat 06:55:13 PM 42.1658 -83.3728 29° Northeast 131 151 1,500 -787 Descending Cleveland Center
Sat 06:55:46 PM 42.1811 -83.3625 26° Northeast 143 165 1,100 -442 Descending Cleveland Center
Sat 06:56:48 PM 42.2097 -83.3408 29° Northeast 137 158 800 -290 Descending Cleveland Center
Sat 06:58:00 PM 42.2000 -83.3500 312° West  Level FlightAware Approximate

Login

Don't have an account? Register now (free) for customized features, flight alerts, and more!